owner,sensor,date,latitude,longitude,vertical_datum,sea_water_practical_salinity,qcFlag 
NERRS,ioos:station:NOAA.NERRS:gndblwq:1,2014-03-01T00:00:00Z,30.3571,-88.4629,0.54,15.4,1111122 
NERRS,ioos:station:NOAA.NERRS:gndblwq:1,2014-03-01T01:00:00Z,30.3571,-88.4629,0.59,16.5,1111122 
NERRS,ioos:station:NOAA.NERRS:gndblwq:1,2014-03-01T02:00:00Z,30.3571,-88.4629,0.62,16.8,1111122 
NERRS,ioos:station:NOAA.NERRS:gndblwq:1,2014-03-01T03:00:00Z,30.3571,-88.4629,0.62,16.6,1111122 
NERRS,ioos:station:NOAA.NERRS:gndblwq:1,2014-03-01T04:00:00Z,30.3571,-88.4629,0.63,16.5,1111122 
NERRS,ioos:station:NOAA.NERRS:gndblwq:1,2014-03-01T05:00:00Z,30.3571,-88.4629,0.67,16.6,1111122 
NERRS,ioos:station:NOAA.NERRS:gndblwq:1,2014-03-01T06:00:00Z,30.3571,-88.4629,0.68,17.3,1111122 
NERRS,ioos:station:NOAA.NERRS:gndblwq:1,2014-03-01T07:00:00Z,30.3571,-88.4629,0.64,17.2,1111122 
NERRS,ioos:station:NOAA.NERRS:gndblwq:1,2014-03-01T08:00:00Z,30.3571,-88.4629,0.55,16.7,1111122 
NERRS,ioos:station:NOAA.NERRS:gndblwq:1,2014-03-01T09:00:00Z,30.3571,-88.4629,0.46,16.2,1111122 
NERRS,ioos:station:NOAA.NERRS:gndblwq:1,2014-03-01T10:00:00Z,30.3571,-88.4629,0.37,12.5,1111122 
NERRS,ioos:station:NOAA.NERRS:gndblwq:1,2014-03-01T11:00:00Z,30.3571,-88.4629,0.31,11.5,1111122 
NERRS,ioos:station:NOAA.NERRS:gndblwq:1,2014-03-01T12:00:00Z,30.3571,-88.4629,0.29,11.0,1111122 
NERRS,ioos:station:NOAA.NERRS:gndblwq:1,2014-03-01T13:00:00Z,30.3571,-88.4629,0.33,12.3,1111122 
NERRS,ioos:station:NOAA.NERRS:gndblwq:1,2014-03-01T14:00:00Z,30.3571,-88.4629,0.34,14.8,1111122 
NERRS,ioos:station:NOAA.NERRS:gndblwq:1,2014-03-01T15:00:00Z,30.3571,-88.4629,0.31,13.7,1111122 
NERRS,ioos:station:NOAA.NERRS:gndblwq:1,2014-03-01T16:00:00Z,30.3571,-88.4629,0.33,14.1,1111122 
NERRS,ioos:station:NOAA.NERRS:gndblwq:1,2014-03-01T17:00:00Z,30.3571,-88.4629,0.36,13.7,1111122 
NERRS,ioos:station:NOAA.NERRS:gndblwq:1,2014-03-01T18:00:00Z,30.3571,-88.4629,0.39,14.0,1111122 
NERRS,ioos:station:NOAA.NERRS:gndblwq:1,2014-03-01T19:00:00Z,30.3571,-88.4629,0.42,14.2,1111122 
NERRS,ioos:station:NOAA.NERRS:gndblwq:1,2014-03-01T20:00:00Z,30.3571,-88.4629,0.41,14.7,1111122 
NERRS,ioos:station:NOAA.NERRS:gndblwq:1,2014-03-01T21:00:00Z,30.3571,-88.4629,0.37,15.3,1111122 
NERRS,ioos:station:NOAA.NERRS:gndblwq:1,2014-03-01T22:00:00Z,30.3571,-88.4629,0.33,15.4,1111122 
NERRS,ioos:station:NOAA.NERRS:gndblwq:1,2014-03-01T23:00:00Z,30.3571,-88.4629,0.35,14.3,1111122 
NERRS,ioos:station:NOAA.NERRS:gndblwq:1,2014-03-02T00:00:00Z,30.3571,-88.4629,0.39,14.7,1111122 
NERRS,ioos:station:NOAA.NERRS:gndblwq:1,2014-03-02T01:00:00Z,30.3571,-88.4629,0.45,14.0,1111122 
NERRS,ioos:station:NOAA.NERRS:gndblwq:1,2014-03-02T02:00:00Z,30.3571,-88.4629,0.5,14.4,1111122 
NERRS,ioos:station:NOAA.NERRS:gndblwq:1,2014-03-02T03:00:00Z,30.3571,-88.4629,0.56,14.4,1111122 
NERRS,ioos:station:NOAA.NERRS:gndblwq:1,2014-03-02T04:00:00Z,30.3571,-88.4629,0.57,14.4,1111122 
NERRS,ioos:station:NOAA.NERRS:gndblwq:1,2014-03-02T05:00:00Z,30.3571,-88.4629,0.55,14.6,1111122 
NERRS,ioos:station:NOAA.NERRS:gndblwq:1,2014-03-02T06:00:00Z,30.3571,-88.4629,0.56,14.4,1111122 
NERRS,ioos:station:NOAA.NERRS:gndblwq:1,2014-03-02T07:00:00Z,30.3571,-88.4629,0.57,15.1,1111122 
NERRS,ioos:station:NOAA.NERRS:gndblwq:1,2014-03-02T08:00:00Z,30.3571,-88.4629,0.55,14.4,1111122 
NERRS,ioos:station:NOAA.NERRS:gndblwq:1,2014-03-02T09:00:00Z,30.3571,-88.4629,0.49,14.4,1111122 
NERRS,ioos:station:NOAA.NERRS:gndblwq:1,2014-03-02T10:00:00Z,30.3571,-88.4629,0.42,15.0,1111122 
NERRS,ioos:station:NOAA.NERRS:gndblwq:1,2014-03-02T11:00:00Z,30.3571,-88.4629,0.36,13.0,1111122 
NERRS,ioos:station:NOAA.NERRS:gndblwq:1,2014-03-02T12:00:00Z,30.3571,-88.4629,0.35,12.9,1111122 
NERRS,ioos:station:NOAA.NERRS:gndblwq:1,2014-03-02T13:00:00Z,30.3571,-88.4629,0.37,13.6,1111122 
NERRS,ioos:station:NOAA.NERRS:gndblwq:1,2014-03-02T14:00:00Z,30.3571,-88.4629,0.43,14.0,1111122 
NERRS,ioos:station:NOAA.NERRS:gndblwq:1,2014-03-02T15:00:00Z,30.3571,-88.4629,0.47,14.2,1111122 
NERRS,ioos:station:NOAA.NERRS:gndblwq:1,2014-03-02T16:00:00Z,30.3571,-88.4629,0.48,14.1,1111122 
NERRS,ioos:station:NOAA.NERRS:gndblwq:1,2014-03-02T17:00:00Z,30.3571,-88.4629,0.45,14.2,1111122 
NERRS,ioos:station:NOAA.NERRS:gndblwq:1,2014-03-02T18:00:00Z,30.3571,-88.4629,0.44,14.2,1111122 
NERRS,ioos:station:NOAA.NERRS:gndblwq:1,2014-03-02T19:00:00Z,30.3571,-88.4629,0.46,14.3,1111122 
NERRS,ioos:station:NOAA.NERRS:gndblwq:1,2014-03-02T20:00:00Z,30.3571,-88.4629,0.46,14.3,1111122 
NERRS,ioos:station:NOAA.NERRS:gndblwq:1,2014-03-02T21:00:00Z,30.3571,-88.4629,0.39,14.6,1111122 
NERRS,ioos:station:NOAA.NERRS:gndblwq:1,2014-03-02T22:00:00Z,30.3571,-88.4629,0.34,14.6,1111122 
NERRS,ioos:station:NOAA.NERRS:gndblwq:1,2014-03-02T23:00:00Z,30.3571,-88.4629,0.3,14.5,1111122 
NERRS,ioos:station:NOAA.NERRS:gndblwq:1,2014-03-03T00:00:00Z,30.3571,-88.4629,0.28,14.4,1111122 
NERRS,ioos:station:NOAA.NERRS:gndblwq:1,2014-03-03T01:00:00Z,30.3571,-88.4629,0.31,14.1,1111122 
NERRS,ioos:station:NOAA.NERRS:gndblwq:1,2014-03-03T02:00:00Z,30.3571,-88.4629,0.4,14.1,1111122 
NERRS,ioos:station:NOAA.NERRS:gndblwq:1,2014-03-03T03:00:00Z,30.3571,-88.4629,0.46,14.3,1111122 
NERRS,ioos:station:NOAA.NERRS:gndblwq:1,2014-03-03T04:00:00Z,30.3571,-88.4629,0.51,15.2,1111122 
NERRS,ioos:station:NOAA.NERRS:gndblwq:1,2014-03-03T05:00:00Z,30.3571,-88.4629,0.5,15.4,1111122 
NERRS,ioos:station:NOAA.NERRS:gndblwq:1,2014-03-03T06:00:00Z,30.3571,-88.4629,0.47,14.6,1111122 
NERRS,ioos:station:NOAA.NERRS:gndblwq:1,2014-03-03T07:00:00Z,30.3571,-88.4629,0.48,14.8,1111122 
NERRS,ioos:station:NOAA.NERRS:gndblwq:1,2014-03-03T08:00:00Z,30.3571,-88.4629,0.49,15.1,1111122 
NERRS,ioos:station:NOAA.NERRS:gndblwq:1,2014-03-03T09:00:00Z,30.3571,-88.4629,0.47,15.0,1111122 
NERRS,ioos:station:NOAA.NERRS:gndblwq:1,2014-03-03T10:00:00Z,30.3571,-88.4629,0.43,14.9,1111122 
NERRS,ioos:station:NOAA.NERRS:gndblwq:1,2014-03-03T11:00:00Z,30.3571,-88.4629,0.38,14.7,1111122 
NERRS,ioos:station:NOAA.NERRS:gndblwq:1,2014-03-03T12:00:00Z,30.3571,-88.4629,0.4,14.9,1111122 
NERRS,ioos:station:NOAA.NERRS:gndblwq:1,2014-03-03T13:00:00Z,30.3571,-88.4629,0.43,14.7,1111122 
NERRS,ioos:station:NOAA.NERRS:gndblwq:1,2014-03-03T14:00:00Z,30.3571,-88.4629,0.47,14.8,1111122 
NERRS,ioos:station:NOAA.NERRS:gndblwq:1,2014-03-03T15:00:00Z,30.3571,-88.4629,0.45,14.5,1111122 
NERRS,ioos:station:NOAA.NERRS:gndblwq:1,2014-03-03T16:00:00Z,30.3571,-88.4629,0.37,14.9,1111122 
NERRS,ioos:station:NOAA.NERRS:gndblwq:1,2014-03-03T17:00:00Z,30.3571,-88.4629,0.25,14.6,1111122 
NERRS,ioos:station:NOAA.NERRS:gndblwq:1,2014-03-03T18:00:00Z,30.3571,-88.4629,0.21,14.3,1111122 
NERRS,ioos:station:NOAA.NERRS:gndblwq:1,2014-03-03T19:00:00Z,30.3571,-88.4629,0.17,13.5,1111122 
NERRS,ioos:station:NOAA.NERRS:gndblwq:1,2014-03-03T20:00:00Z,30.3571,-88.4629,0.18,13.6,1111122 
NERRS,ioos:station:NOAA.NERRS:gndblwq:1,2014-03-03T21:00:00Z,30.3571,-88.4629,0.21,13.8,1111122 
NERRS,ioos:station:NOAA.NERRS:gndblwq:1,2014-03-03T22:00:00Z,30.3571,-88.4629,0.25,13.9,1111122 
NERRS,ioos:station:NOAA.NERRS:gndblwq:1,2014-03-03T23:00:00Z,30.3571,-88.4629,0.25,13.8,1111122 
NERRS,ioos:station:NOAA.NERRS:gndblwq:1,2014-03-04T00:00:00Z,30.3571,-88.4629,0.19,13.8,1111122 
NERRS,ioos:station:NOAA.NERRS:gndblwq:1,2014-03-04T01:00:00Z,30.3571,-88.4629,0.11,13.8,1111122 
NERRS,ioos:station:NOAA.NERRS:gndblwq:1,2014-03-04T02:00:00Z,30.3571,-88.4629,0.09,13.5,1111122 
NERRS,ioos:station:NOAA.NERRS:gndblwq:1,2014-03-04T03:00:00Z,30.3571,-88.4629,0.1,13.1,1111122 
NERRS,ioos:station:NOAA.NERRS:gndblwq:1,2014-03-04T04:00:00Z,30.3571,-88.4629,0.16,13.4,1111122 
NERRS,ioos:station:NOAA.NERRS:gndblwq:1,2014-03-04T05:00:00Z,30.3571,-88.4629,0.18,13.6,1111122 
NERRS,ioos:station:NOAA.NERRS:gndblwq:1,2014-03-04T06:00:00Z,30.3571,-88.4629,0.23,13.8,1111122 
NERRS,ioos:station:NOAA.NERRS:gndblwq:1,2014-03-04T07:00:00Z,30.3571,-88.4629,0.28,13.9,1111122 
NERRS,ioos:station:NOAA.NERRS:gndblwq:1,2014-03-04T08:00:00Z,30.3571,-88.4629,0.33,14.1,1111122 
NERRS,ioos:station:NOAA.NERRS:gndblwq:1,2014-03-04T09:00:00Z,30.3571,-88.4629,0.36,14.1,1111122 
NERRS,ioos:station:NOAA.NERRS:gndblwq:1,2014-03-04T10:00:00Z,30.3571,-88.4629,0.38,14.1,1111122 
NERRS,ioos:station:NOAA.NERRS:gndblwq:1,2014-03-04T11:00:00Z,30.3571,-88.4629,0.37,14.1,1111122 
NERRS,ioos:station:NOAA.NERRS:gndblwq:1,2014-03-04T12:00:00Z,30.3571,-88.4629,0.35,14.2,1111122 
NERRS,ioos:station:NOAA.NERRS:gndblwq:1,2014-03-04T13:00:00Z,30.3571,-88.4629,0.32,14.1,1111122 
NERRS,ioos:station:NOAA.NERRS:gndblwq:1,2014-03-04T14:00:00Z,30.3571,-88.4629,0.37,14.1,1111122 
NERRS,ioos:station:NOAA.NERRS:gndblwq:1,2014-03-04T15:00:00Z,30.3571,-88.4629,0.47,14.4,1111122 
NERRS,ioos:station:NOAA.NERRS:gndblwq:1,2014-03-04T16:00:00Z,30.3571,-88.4629,0.57,15.8,1111122 
NERRS,ioos:station:NOAA.NERRS:gndblwq:1,2014-03-04T17:00:00Z,30.3571,-88.4629,0.56,16.3,1111122 
NERRS,ioos:station:NOAA.NERRS:gndblwq:1,2014-03-04T19:00:00Z,30.3571,-88.4629,0.46,14.5,1111122 
NERRS,ioos:station:NOAA.NERRS:gndblwq:1,2014-03-04T20:00:00Z,30.3571,-88.4629,0.44,14.4,1111122 
NERRS,ioos:station:NOAA.NERRS:gndblwq:1,2014-03-04T22:00:00Z,30.3571,-88.4629,0.45,14.7,1111122 
NERRS,ioos:station:NOAA.NERRS:gndblwq:1,2014-03-04T23:00:00Z,30.3571,-88.4629,0.36,14.9,1111122 
NERRS,ioos:station:NOAA.NERRS:gndblwq:1,2014-03-05T00:00:00Z,30.3571,-88.4629,0.26,13.9,1111122 
NERRS,ioos:station:NOAA.NERRS:gndblwq:1,2014-03-05T01:00:00Z,30.3571,-88.4629,0.21,13.9,1111122 
NERRS,ioos:station:NOAA.NERRS:gndblwq:1,2014-03-06T15:00:00Z,30.3571,-88.4629,0.58,15.0,1111122 
NERRS,ioos:station:NOAA.NERRS:gndblwq:1,2014-03-06T16:00:00Z,30.3571,-88.4629,0.59,15.2,1111122 
NERRS,ioos:station:NOAA.NERRS:gndblwq:1,2014-03-06T17:00:00Z,30.3571,-88.4629,0.61,15.3,1111122 
NERRS,ioos:station:NOAA.NERRS:gndblwq:1,2014-03-06T18:00:00Z,30.3571,-88.4629,0.64,16.7,1111122 
NERRS,ioos:station:NOAA.NERRS:gndblwq:1,2014-03-06T19:00:00Z,30.3571,-88.4629,0.64,16.4,1111122 
NERRS,ioos:station:NOAA.NERRS:gndblwq:1,2014-03-06T20:00:00Z,30.3571,-88.4629,0.62,16.7,1111122 
NERRS,ioos:station:NOAA.NERRS:gndblwq:1,2014-03-06T21:00:00Z,30.3571,-88.4629,0.6,15.7,1111122 
NERRS,ioos:station:NOAA.NERRS:gndblwq:1,2014-03-06T22:00:00Z,30.3571,-88.4629,0.55,14.9,1111122 
NERRS,ioos:station:NOAA.NERRS:gndblwq:1,2014-03-06T23:00:00Z,30.3571,-88.4629,0.49,14.3,1111122 
NERRS,ioos:station:NOAA.NERRS:gndblwq:1,2014-03-07T00:00:00Z,30.3571,-88.4629,0.42,13.7,1111122 
NERRS,ioos:station:NOAA.NERRS:gndblwq:1,2014-03-07T01:00:00Z,30.3571,-88.4629,0.32,13.3,1111122 
NERRS,ioos:station:NOAA.NERRS:gndblwq:1,2014-03-07T02:00:00Z,30.3571,-88.4629,0.22,13.4,1111122 
NERRS,ioos:station:NOAA.NERRS:gndblwq:1,2014-03-07T03:00:00Z,30.3571,-88.4629,0.18,13.3,1111122 
NERRS,ioos:station:NOAA.NERRS:gndblwq:1,2014-03-07T04:00:00Z,30.3571,-88.4629,0.16,13.1,1111122 
NERRS,ioos:station:NOAA.NERRS:gndblwq:1,2014-03-07T05:00:00Z,30.3571,-88.4629,0.18,13.2,1111122 
NERRS,ioos:station:NOAA.NERRS:gndblwq:1,2014-03-07T06:00:00Z,30.3571,-88.4629,0.17,13.3,1111122 
NERRS,ioos:station:NOAA.NERRS:gndblwq:1,2014-03-07T07:00:00Z,30.3571,-88.4629,0.16,13.4,1111122 
NERRS,ioos:station:NOAA.NERRS:gndblwq:1,2014-03-07T08:00:00Z,30.3571,-88.4629,0.12,12.8,1111122 
NERRS,ioos:station:NOAA.NERRS:gndblwq:1,2014-03-07T09:00:00Z,30.3571,-88.4629,0.15,13.4,1111122 
NERRS,ioos:station:NOAA.NERRS:gndblwq:1,2014-03-07T10:00:00Z,30.3571,-88.4629,0.18,13.1,1111122 
NERRS,ioos:station:NOAA.NERRS:gndblwq:1,2014-03-07T11:00:00Z,30.3571,-88.4629,0.19,13.0,1111122 
NERRS,ioos:station:NOAA.NERRS:gndblwq:1,2014-03-07T12:00:00Z,30.3571,-88.4629,0.21,13.4,1111122 
NERRS,ioos:station:NOAA.NERRS:gndblwq:1,2014-03-07T13:00:00Z,30.3571,-88.4629,0.22,13.3,1111122 
NERRS,ioos:station:NOAA.NERRS:gndblwq:1,2014-03-07T14:00:00Z,30.3571,-88.4629,0.28,13.4,1111122 
NERRS,ioos:station:NOAA.NERRS:gndblwq:1,2014-03-07T15:00:00Z,30.3571,-88.4629,0.37,13.4,1111122 
NERRS,ioos:station:NOAA.NERRS:gndblwq:1,2014-03-07T16:00:00Z,30.3571,-88.4629,0.47,14.9,1111122 
NERRS,ioos:station:NOAA.NERRS:gndblwq:1,2014-03-07T17:00:00Z,30.3571,-88.4629,0.52,17.2,1111122 
NERRS,ioos:station:NOAA.NERRS:gndblwq:1,2014-03-07T18:00:00Z,30.3571,-88.4629,0.59,18.7,1111122 
NERRS,ioos:station:NOAA.NERRS:gndblwq:1,2014-03-07T19:00:00Z,30.3571,-88.4629,0.6,20.3,1111122 
NERRS,ioos:station:NOAA.NERRS:gndblwq:1,2014-03-07T20:00:00Z,30.3571,-88.4629,0.61,20.2,1111122 
NERRS,ioos:station:NOAA.NERRS:gndblwq:1,2014-03-07T21:00:00Z,30.3571,-88.4629,0.59,14.7,1111122 
NERRS,ioos:station:NOAA.NERRS:gndblwq:1,2014-03-07T23:00:00Z,30.3571,-88.4629,0.48,13.7,1111122 
NERRS,ioos:station:NOAA.NERRS:gndblwq:1,2014-03-08T00:00:00Z,30.3571,-88.4629,0.45,12.5,1111122 
NERRS,ioos:station:NOAA.NERRS:gndblwq:1,2014-03-08T01:00:00Z,30.3571,-88.4629,0.4,14.1,1111122 
NERRS,ioos:station:NOAA.NERRS:gndblwq:1,2014-03-08T02:00:00Z,30.3571,-88.4629,0.35,13.9,1111122 
NERRS,ioos:station:NOAA.NERRS:gndblwq:1,2014-03-08T03:00:00Z,30.3571,-88.4629,0.3,13.3,1111122 
NERRS,ioos:station:NOAA.NERRS:gndblwq:1,2014-03-08T04:00:00Z,30.3571,-88.4629,0.25,13.1,1111122 
NERRS,ioos:station:NOAA.NERRS:gndblwq:1,2014-03-08T05:00:00Z,30.3571,-88.4629,0.22,12.2,1111122 
NERRS,ioos:station:NOAA.NERRS:gndblwq:1,2014-03-08T06:00:00Z,30.3571,-88.4629,0.17,12.1,1111122 
NERRS,ioos:station:NOAA.NERRS:gndblwq:1,2014-03-08T07:00:00Z,30.3571,-88.4629,0.12,12.4,1111122 
NERRS,ioos:station:NOAA.NERRS:gndblwq:1,2014-03-08T08:00:00Z,30.3571,-88.4629,0.09,12.4,1111122 
NERRS,ioos:station:NOAA.NERRS:gndblwq:1,2014-03-08T09:00:00Z,30.3571,-88.4629,0.1,12.5,1111122 
NERRS,ioos:station:NOAA.NERRS:gndblwq:1,2014-03-08T10:00:00Z,30.3571,-88.4629,0.12,12.7,1111122 
NERRS,ioos:station:NOAA.NERRS:gndblwq:1,2014-03-08T11:00:00Z,30.3571,-88.4629,0.17,13.2,1111122 
NERRS,ioos:station:NOAA.NERRS:gndblwq:1,2014-03-08T12:00:00Z,30.3571,-88.4629,0.21,13.2,1111122 
NERRS,ioos:station:NOAA.NERRS:gndblwq:1,2014-03-08T13:00:00Z,30.3571,-88.4629,0.24,14.9,1111122 
NERRS,ioos:station:NOAA.NERRS:gndblwq:1,2014-03-08T14:00:00Z,30.3571,-88.4629,0.3,16.8,1111122 
NERRS,ioos:station:NOAA.NERRS:gndblwq:1,2014-03-08T15:00:00Z,30.3571,-88.4629,0.35,17.1,1111122 
NERRS,ioos:station:NOAA.NERRS:gndblwq:1,2014-03-08T16:00:00Z,30.3571,-88.4629,0.4,19.4,1111122 
NERRS,ioos:station:NOAA.NERRS:gndblwq:1,2014-03-08T17:00:00Z,30.3571,-88.4629,0.45,19.5,1111122 
NERRS,ioos:station:NOAA.NERRS:gndblwq:1,2014-03-08T18:00:00Z,30.3571,-88.4629,0.5,19.0,1111122 
NERRS,ioos:station:NOAA.NERRS:gndblwq:1,2014-03-08T19:00:00Z,30.3571,-88.4629,0.52,19.6,1111122 
NERRS,ioos:station:NOAA.NERRS:gndblwq:1,2014-03-08T20:00:00Z,30.3571,-88.4629,0.5,19.0,1111122 
NERRS,ioos:station:NOAA.NERRS:gndblwq:1,2014-03-08T21:00:00Z,30.3571,-88.4629,0.47,18.6,1111122 
NERRS,ioos:station:NOAA.NERRS:gndblwq:1,2014-03-08T22:00:00Z,30.3571,-88.4629,0.48,18.9,1111122 
NERRS,ioos:station:NOAA.NERRS:gndblwq:1,2014-03-08T23:00:00Z,30.3571,-88.4629,0.52,19.0,1111122 
NERRS,ioos:station:NOAA.NERRS:gndblwq:1,2014-03-09T00:00:00Z,30.3571,-88.4629,0.54,18.9,1111122 
NERRS,ioos:station:NOAA.NERRS:gndblwq:1,2014-03-09T11:00:00Z,30.3571,-88.4629,0.19,14.6,1111122 
NERRS,ioos:station:NOAA.NERRS:gndblwq:1,2014-03-09T12:00:00Z,30.3571,-88.4629,0.24,15.0,1111122 
NERRS,ioos:station:NOAA.NERRS:gndblwq:1,2014-03-09T13:00:00Z,30.3571,-88.4629,0.28,15.0,1111122 
NERRS,ioos:station:NOAA.NERRS:gndblwq:1,2014-03-09T14:00:00Z,30.3571,-88.4629,0.33,16.1,1111122 
NERRS,ioos:station:NOAA.NERRS:gndblwq:1,2014-03-09T15:00:00Z,30.3571,-88.4629,0.41,16.3,1111122 
NERRS,ioos:station:NOAA.NERRS:gndblwq:1,2014-03-09T16:00:00Z,30.3571,-88.4629,0.45,16.9,1111122 
NERRS,ioos:station:NOAA.NERRS:gndblwq:1,2014-03-09T17:00:00Z,30.3571,-88.4629,0.47,17.3,1111122 
NERRS,ioos:station:NOAA.NERRS:gndblwq:1,2014-03-09T18:00:00Z,30.3571,-88.4629,0.49,17.6,1111122 
NERRS,ioos:station:NOAA.NERRS:gndblwq:1,2014-03-09T19:00:00Z,30.3571,-88.4629,0.5,17.7,1111122 
NERRS,ioos:station:NOAA.NERRS:gndblwq:1,2014-03-09T21:00:00Z,30.3571,-88.4629,0.54,17.7,1111122 
NERRS,ioos:station:NOAA.NERRS:gndblwq:1,2014-03-09T22:00:00Z,30.3571,-88.4629,0.54,18.2,1111122 
NERRS,ioos:station:NOAA.NERRS:gndblwq:1,2014-03-09T23:00:00Z,30.3571,-88.4629,0.51,16.9,1111122 
NERRS,ioos:station:NOAA.NERRS:gndblwq:1,2014-03-10T00:00:00Z,30.3571,-88.4629,0.52,16.3,1111122 
NERRS,ioos:station:NOAA.NERRS:gndblwq:1,2014-03-10T01:00:00Z,30.3571,-88.4629,0.49,15.3,1111122 
NERRS,ioos:station:NOAA.NERRS:gndblwq:1,2014-03-10T02:00:00Z,30.3571,-88.4629,0.46,15.8,1111122 
NERRS,ioos:station:NOAA.NERRS:gndblwq:1,2014-03-10T03:00:00Z,30.3571,-88.4629,0.45,16.1,1111122 
NERRS,ioos:station:NOAA.NERRS:gndblwq:1,2014-03-10T04:00:00Z,30.3571,-88.4629,0.38,15.8,1111122 
NERRS,ioos:station:NOAA.NERRS:gndblwq:1,2014-03-10T05:00:00Z,30.3571,-88.4629,0.29,15.2,1111122 
NERRS,ioos:station:NOAA.NERRS:gndblwq:1,2014-03-10T06:00:00Z,30.3571,-88.4629,0.22,15.0,1111122 
NERRS,ioos:station:NOAA.NERRS:gndblwq:1,2014-03-10T07:00:00Z,30.3571,-88.4629,0.19,14.7,1111122 
NERRS,ioos:station:NOAA.NERRS:gndblwq:1,2014-03-10T08:00:00Z,30.3571,-88.4629,0.15,14.7,1111122 
NERRS,ioos:station:NOAA.NERRS:gndblwq:1,2014-03-10T09:00:00Z,30.3571,-88.4629,0.13,14.5,1111122 
NERRS,ioos:station:NOAA.NERRS:gndblwq:1,2014-03-10T10:00:00Z,30.3571,-88.4629,0.13,14.5,1111122 
NERRS,ioos:station:NOAA.NERRS:gndblwq:1,2014-03-10T11:00:00Z,30.3571,-88.4629,0.15,14.7,1111122 
NERRS,ioos:station:NOAA.NERRS:gndblwq:1,2014-03-10T12:00:00Z,30.3571,-88.4629,0.18,15.0,1111122 
NERRS,ioos:station:NOAA.NERRS:gndblwq:1,2014-03-10T13:00:00Z,30.3571,-88.4629,0.25,15.7,1111122 
NERRS,ioos:station:NOAA.NERRS:gndblwq:1,2014-03-10T14:00:00Z,30.3571,-88.4629,0.32,16.0,1111122 
NERRS,ioos:station:NOAA.NERRS:gndblwq:1,2014-03-10T15:00:00Z,30.3571,-88.4629,0.35,16.3,1111122 
NERRS,ioos:station:NOAA.NERRS:gndblwq:1,2014-03-10T16:00:00Z,30.3571,-88.4629,0.39,16.5,1111122 
NERRS,ioos:station:NOAA.NERRS:gndblwq:1,2014-03-10T17:00:00Z,30.3571,-88.4629,0.41,17.3,1111122 
NERRS,ioos:station:NOAA.NERRS:gndblwq:1,2014-03-10T18:00:00Z,30.3571,-88.4629,0.45,17.6,1111122 
NERRS,ioos:station:NOAA.NERRS:gndblwq:1,2014-03-10T19:00:00Z,30.3571,-88.4629,0.49,17.7,1111122 
NERRS,ioos:station:NOAA.NERRS:gndblwq:1,2014-03-10T20:00:00Z,30.3571,-88.4629,0.51,17.2,1111122 
NERRS,ioos:station:NOAA.NERRS:gndblwq:1,2014-03-10T21:00:00Z,30.3571,-88.4629,0.52,16.9,1111122 
NERRS,ioos:station:NOAA.NERRS:gndblwq:1,2014-03-10T22:00:00Z,30.3571,-88.4629,0.54,17.2,1111122 
NERRS,ioos:station:NOAA.NERRS:gndblwq:1,2014-03-10T23:00:00Z,30.3571,-88.4629,0.56,17.8,1111122 
NERRS,ioos:station:NOAA.NERRS:gndblwq:1,2014-03-11T00:00:00Z,30.3571,-88.4629,0.56,17.7,1111122 
NERRS,ioos:station:NOAA.NERRS:gndblwq:1,2014-03-11T01:00:00Z,30.3571,-88.4629,0.53,18.5,1111122 
NERRS,ioos:station:NOAA.NERRS:gndblwq:1,2014-03-11T02:00:00Z,30.3571,-88.4629,0.51,18.0,1111122 
NERRS,ioos:station:NOAA.NERRS:gndblwq:1,2014-03-11T03:00:00Z,30.3571,-88.4629,0.49,17.1,1111122 
NERRS,ioos:station:NOAA.NERRS:gndblwq:1,2014-03-11T04:00:00Z,30.3571,-88.4629,0.44,17.0,1111122 
NERRS,ioos:station:NOAA.NERRS:gndblwq:1,2014-03-11T05:00:00Z,30.3571,-88.4629,0.37,17.0,1111122 
NERRS,ioos:station:NOAA.NERRS:gndblwq:1,2014-03-11T06:00:00Z,30.3571,-88.4629,0.3,17.1,1111122 
NERRS,ioos:station:NOAA.NERRS:gndblwq:1,2014-03-11T07:00:00Z,30.3571,-88.4629,0.24,17.2,1111122 
NERRS,ioos:station:NOAA.NERRS:gndblwq:1,2014-03-11T08:00:00Z,30.3571,-88.4629,0.18,17.1,1111122 
NERRS,ioos:station:NOAA.NERRS:gndblwq:1,2014-03-11T09:00:00Z,30.3571,-88.4629,0.14,16.9,1111122 
NERRS,ioos:station:NOAA.NERRS:gndblwq:1,2014-03-11T10:00:00Z,30.3571,-88.4629,0.12,16.2,1111122 
NERRS,ioos:station:NOAA.NERRS:gndblwq:1,2014-03-11T11:00:00Z,30.3571,-88.4629,0.12,16.2,1111122 
NERRS,ioos:station:NOAA.NERRS:gndblwq:1,2014-03-11T12:00:00Z,30.3571,-88.4629,0.15,16.3,1111122 
NERRS,ioos:station:NOAA.NERRS:gndblwq:1,2014-03-11T13:00:00Z,30.3571,-88.4629,0.2,16.6,1111122 
NERRS,ioos:station:NOAA.NERRS:gndblwq:1,2014-03-11T15:00:00Z,30.3571,-88.4629,0.31,17.5,1111122 
NERRS,ioos:station:NOAA.NERRS:gndblwq:1,2014-03-11T16:00:00Z,30.3571,-88.4629,0.33,18.0,1111122 
NERRS,ioos:station:NOAA.NERRS:gndblwq:1,2014-03-11T17:00:00Z,30.3571,-88.4629,0.37,17.9,1111122 
NERRS,ioos:station:NOAA.NERRS:gndblwq:1,2014-03-11T18:00:00Z,30.3571,-88.4629,0.41,18.4,1111122 
NERRS,ioos:station:NOAA.NERRS:gndblwq:1,2014-03-11T19:00:00Z,30.3571,-88.4629,0.45,18.4,1111122 
NERRS,ioos:station:NOAA.NERRS:gndblwq:1,2014-03-11T20:00:00Z,30.3571,-88.4629,0.5,18.8,1111122 
NERRS,ioos:station:NOAA.NERRS:gndblwq:1,2014-03-11T21:00:00Z,30.3571,-88.4629,0.53,19.4,1111122 
NERRS,ioos:station:NOAA.NERRS:gndblwq:1,2014-03-11T22:00:00Z,30.3571,-88.4629,0.57,19.5,1111122 
NERRS,ioos:station:NOAA.NERRS:gndblwq:1,2014-03-11T23:00:00Z,30.3571,-88.4629,0.61,19.8,1111122 
NERRS,ioos:station:NOAA.NERRS:gndblwq:1,2014-03-12T00:00:00Z,30.3571,-88.4629,0.64,20.1,1111122 
NERRS,ioos:station:NOAA.NERRS:gndblwq:1,2014-03-12T01:00:00Z,30.3571,-88.4629,0.67,19.9,1111122 
NERRS,ioos:station:NOAA.NERRS:gndblwq:1,2014-03-12T02:00:00Z,30.3571,-88.4629,0.64,20.2,1111122 
NERRS,ioos:station:NOAA.NERRS:gndblwq:1,2014-03-12T03:00:00Z,30.3571,-88.4629,0.61,19.9,1111122 
NERRS,ioos:station:NOAA.NERRS:gndblwq:1,2014-03-12T04:00:00Z,30.3571,-88.4629,0.61,19.7,1111122 
NERRS,ioos:station:NOAA.NERRS:gndblwq:1,2014-03-12T05:00:00Z,30.3571,-88.4629,0.58,19.8,1111122 
NERRS,ioos:station:NOAA.NERRS:gndblwq:1,2014-03-12T06:00:00Z,30.3571,-88.4629,0.48,18.7,1111122 
NERRS,ioos:station:NOAA.NERRS:gndblwq:1,2014-03-12T07:00:00Z,30.3571,-88.4629,0.36,18.2,1111122 
NERRS,ioos:station:NOAA.NERRS:gndblwq:1,2014-03-12T08:00:00Z,30.3571,-88.4629,0.3,18.0,1111122 
NERRS,ioos:station:NOAA.NERRS:gndblwq:1,2014-03-12T09:00:00Z,30.3571,-88.4629,0.32,17.5,1111122 
NERRS,ioos:station:NOAA.NERRS:gndblwq:1,2014-03-12T10:00:00Z,30.3571,-88.4629,0.29,17.9,1111122 
NERRS,ioos:station:NOAA.NERRS:gndblwq:1,2014-03-12T11:00:00Z,30.3571,-88.4629,0.25,17.8,1111122 
NERRS,ioos:station:NOAA.NERRS:gndblwq:1,2014-03-12T12:00:00Z,30.3571,-88.4629,0.23,17.9,1111122 
NERRS,ioos:station:NOAA.NERRS:gndblwq:1,2014-03-12T13:00:00Z,30.3571,-88.4629,0.23,17.8,1111122 
NERRS,ioos:station:NOAA.NERRS:gndblwq:1,2014-03-12T14:00:00Z,30.3571,-88.4629,0.28,17.6,1111122 
NERRS,ioos:station:NOAA.NERRS:gndblwq:1,2014-03-12T15:00:00Z,30.3571,-88.4629,0.36,17.5,1111122 
NERRS,ioos:station:NOAA.NERRS:gndblwq:1,2014-03-12T16:00:00Z,30.3571,-88.4629,0.39,17.4,1111122 
NERRS,ioos:station:NOAA.NERRS:gndblwq:1,2014-03-12T17:00:00Z,30.3571,-88.4629,0.43,17.4,1111122 
NERRS,ioos:station:NOAA.NERRS:gndblwq:1,2014-03-12T19:00:00Z,30.3571,-88.4629,0.41,17.4,1111122 
NERRS,ioos:station:NOAA.NERRS:gndblwq:1,2014-03-12T20:00:00Z,30.3571,-88.4629,0.39,17.5,1111122 
NERRS,ioos:station:NOAA.NERRS:gndblwq:1,2014-03-12T21:00:00Z,30.3571,-88.4629,0.38,17.5,1111122 
NERRS,ioos:station:NOAA.NERRS:gndblwq:1,2014-03-12T22:00:00Z,30.3571,-88.4629,0.34,17.5,1111122 
NERRS,ioos:station:NOAA.NERRS:gndblwq:1,2014-03-12T23:00:00Z,30.3571,-88.4629,0.34,17.7,1111122 
NERRS,ioos:station:NOAA.NERRS:gndblwq:1,2014-03-13T00:00:00Z,30.3571,-88.4629,0.35,17.5,1111122 
NERRS,ioos:station:NOAA.NERRS:gndblwq:1,2014-03-13T01:00:00Z,30.3571,-88.4629,0.38,17.6,1111122 
NERRS,ioos:station:NOAA.NERRS:gndblwq:1,2014-03-13T02:00:00Z,30.3571,-88.4629,0.36,17.5,1111122 
NERRS,ioos:station:NOAA.NERRS:gndblwq:1,2014-03-13T03:00:00Z,30.3571,-88.4629,0.3,17.5,1111122 
NERRS,ioos:station:NOAA.NERRS:gndblwq:1,2014-03-13T04:00:00Z,30.3571,-88.4629,0.24,17.6,1111122 
NERRS,ioos:station:NOAA.NERRS:gndblwq:1,2014-03-13T05:00:00Z,30.3571,-88.4629,0.24,17.6,1111122 
NERRS,ioos:station:NOAA.NERRS:gndblwq:1,2014-03-13T06:00:00Z,30.3571,-88.4629,0.19,17.6,1111122 
NERRS,ioos:station:NOAA.NERRS:gndblwq:1,2014-03-13T07:00:00Z,30.3571,-88.4629,0.16,17.4,1111122 
NERRS,ioos:station:NOAA.NERRS:gndblwq:1,2014-03-13T08:00:00Z,30.3571,-88.4629,0.14,16.9,1111122 
NERRS,ioos:station:NOAA.NERRS:gndblwq:1,2014-03-13T09:00:00Z,30.3571,-88.4629,0.11,16.7,1111122 
NERRS,ioos:station:NOAA.NERRS:gndblwq:1,2014-03-13T10:00:00Z,30.3571,-88.4629,0.13,16.4,1111122 